Location: Newark
(48.8656°N, 2.3211°E)
Time: 21:51:12
(UTC+00:00)

Envisat - Visible Passes

Search period start: 24 April 2019 00:00
Search period end: 04 May 2019 00:00
Orbit: 764 x 766 km, 98.2° (Epoch: 24 April)

Date Brightness Start Highest point End Pass type
(mag) Time Alt. Az. Time Alt. Az. Time Alt. Az.
24 Apr 6.0 19:58:48 10° WSW 20:00:55 12° W 20:03:04 10° WNW visible
27 Apr 5.8 19:46:32 10° SW 19:49:32 16° W 19:52:33 10° NW visible
30 Apr 5.7 19:34:34 10° SW 19:38:10 19° W 19:41:48 10° NW visible
02 May 6.1 20:02:27 10° WSW 20:04:04 11° W 20:05:41 10° WNW visible
